Flag for Mexico Weather past 2 weeks in Mexico City, Federal District, Mexico

Now
57 °F

Overcast.


Feels Like: 57 °F
Forecast: 53 / 65 °F
Wind: 3 mph from West

Location: Mexico City / Licenci

Current Time: Dec 22, 2014 at 9:13:00 AM

Latest Report: Dec 22, 2014 at 8:45 AM


Visibility: 10 mi

Pressure: 29.80 "Hg

Humidity: 48%

Dew point: 37 °F

Location of Mexico CityLocation

Historic Weather in Mexico City — Graph

°F

Mexico City temperature yesterday

Maximum temperature yesterday: 75 °F (at 1:45 PM)
Minimum temperature yesterday: 52 °F (at 7:45 AM)
Average temperature yesterday: 60 °F

Past Weeks' High & Low Weather Summary

 TemperatureHumidityPressure
High75 °F (Dec 18, 2:43 PM)93% (Dec 7, 8:21 AM)30.50 "Hg (Dec 7, 8:21 AM)
Low43 °F (Dec 7, 8:21 AM)15% (Dec 21, 1:45 PM)29.68 "Hg (Dec 19, 2:45 PM)
Average57 °F60%30.24 "Hg
* Reported Dec 7 7:22 AM — Dec 22 7:48 AM, Mexico City, Weather by CustomWeather, © 2014

Note: Actual official high and low records may vary slightly from our data, if they occured in-between our weather recording intervals... More about our weather records

Advertising

Mexico City weather history for previous 24 hours

 ConditionsComfort  
Time TempWeatherWind HumidityBarometerVisibility
7:48 AM
Dec 22
55 °FMostly cloudy.3 mph51%30.24 "Hg8 mi
7:20 AM55 °FPartly sunny.5 mph55%30.24 "Hg8 mi
6:49 AM54 °FPartly cloudy.5 mph63%30.23 "Hg9 mi
6:20 AM54 °FPartly cloudy.3 mph63%30.23 "Hg7 mi
5:49 AM55 °FPartly cloudy.5 mph59%29.75 "Hg7 mi
4:50 AM55 °FMostly cloudy.5 mph59%30.21 "Hg7 mi
3:47 AM55 °FMostly cloudy.No wind59%30.21 "Hg10 mi
2:53 AM57 °FOvercast.No wind55%29.88 "Hg10 mi
1:50 AM57 °FMostly cloudy.3 mph55%30.24 "Hg10 mi
12:42 AM59 °FPassing clouds.6 mph51%30.25 "Hg10 mi
7:50 PM
Dec 21
63 °FPartly cloudy.8 mph45%30.23 "Hg12 mi
4:00 PM70 °FSleet. Broken clouds.10 mph31%30.18 "Hg10 mi
1:45 PM75 °FPartly sunny.6 mph15%30.21 "Hg10 mi
12:48 PM73 °FPartly sunny.5 mph17%30.25 "Hg10 mi
12:21 PM70 °FSleet. Cloudy.N/A21%30.26 "HgN/A
11:45 AM66 °FMore clouds than sun.6 mph28%29.83 "Hg8 mi
10:45 AM64 °FOvercast.5 mph40%30.32 "Hg7 mi
10:21 AM61 °FOvercast.3 mph48%30.33 "Hg7 mi
9:21 AM57 °FOvercast.6 mph59%30.35 "Hg8 mi
Weather by CustomWeather, © 2014

See weather overviewHow to use our weather pages